TIBA-1

Last updated on Thu Mar 05 2026 00:02:59 GMT+0000 (Coordinated Universal Time)

1 44800U 19080A 26063.36572510 .00000144 00000+0 00000+0 0 9997 2 44800 0.0567 339.8870 0001900 3.1728 346.2364 1.00276088 23000
UTC large
Height (km)
Speed (km/s)
/
Latitude / Longitude
Inclination (degrees)
Orbital Period (minutes)
Azimuth
Elevation
Range (km)
Doppler Factor

Next 0 passes for location: London (51.5072 / 0.1276)

Sorry there are no passes over London.